[[{"header":{"parameterUnit":"m.s-1","parameterCategory":1,"la1":30.2991,"la2":30.254,"lo1":-89.0895,"lo2":-89.0444,"dy":0.0017,"dx":0.0017,"nx":28,"ny":28,"refTime":"2024-05-31T03:00:00:Z","depth":0,"parameterNumber":2,"parameterNumberName":"U-component_of_WINDS"},"data":[0,0,0,0,0,0,0,0,0,0,0,0,0,0,0,0,0,0,0,0,0,0,0,0,0,0,0,0,0,0,0,0,0,0,0,0,0,0,0,0,0,0,0,0,0,0,0,0,0,0,0,0,0,0,0,0,0,0,-5.9489,-5.949,0,-5.9571,-5.9572,-5.9573,-5.9545,-5.9544,-5.9542,-5.954,-5.9619,-5.9623,-5.9626,0,0,0,0,0,0,0,0,0,0,0,0,0,-5.9306,-5.931,-5.9489,-5.949,-5.9491,-5.9571,-5.9572,-5.9573,-5.9546,-5.9544,-5.9541,-5.9539,-5.9618,-5.9622,-5.9627,0,0,0,0,0,0,0,0,0,0,0,0,0,-5.9386,-5.9311,-5.9489,-5.9487,-5.9488,-5.9571,-5.9572,-5.9573,-5.9546,-5.9543,-5.9541,-5.9538,-5.9616,-5.9622,-5.9627,-5.9715,0,0,-5.9644,-5.9647,0,0,0,0,0,0,0,0,-5.9382,-5.9393,-5.9487,-5.9488,-5.9489,-5.9545,-5.9536,-5.9621,-5.9547,-5.9524,-5.954,-5.9537,-5.9596,-5.9603,-5.9624,-5.9718,-5.9722,-5.9645,-5.9648,-5.9651,-5.9652,0,0,0,0,0,0,0,-5.9376,-5.939,-5.9521,-5.9488,-5.9489,-5.9481,-5.949,-5.9552,-5.9574,-5.9526,-5.9524,-5.9534,-5.9596,-5.9619,-5.9626,-5.9723,-5.9645,-5.965,-5.9653,-5.9655,-5.9892,-5.9895,0,0,0,0,0,0,-5.9371,-5.9385,-5.9519,-5.9524,-5.9428,-5.9487,-5.9496,-5.953,-5.9573,-5.9577,-5.9536,-5.9533,-5.9611,-5.9619,-5.9629,-5.9732,-5.9651,-5.9656,-5.9659,-5.9889,-5.9893,-5.9896,0,0,0,0,0,0,-5.9367,-5.9383,-5.9516,-5.9454,-5.947,-5.9493,-5.9531,-5.9533,-5.9555,-5.9581,-5.9585,-5.9556,-5.9609,-5.9621,-5.9694,-5.9735,-5.9658,-5.9664,-5.9886,-5.989,-5.9895,-5.9942,0,0,0,0,0,0,-5.9362,-5.9382,-5.9416,-5.9455,-5.9474,-5.958,-5.9533,-5.9536,-5.9566,-5.9562,-5.96,-5.9604,-5.9608,-5.9686,-5.9699,-5.9741,-5.9668,-5.9882,-5.9888,-5.9893,-5.9936,-5.9947,-5.9956,0,0,0,0,0,-5.9356,-5.9425,-5.9418,-5.9434,-5.9517,-5.9583,-5.9593,-5.9597,-5.9569,-5.9603,-5.962,-5.9603,-5.9729,-5.9693,-5.9708,-5.9753,-5.988,-5.9886,-5.9893,-5.9932,-5.9945,-5.9956,0,0,0,0,0,0,-5.9388,-5.943,-5.9422,-5.9507,-5.9542,-5.9578,-5.962,-5.9611,-5.9653,-5.9647,-5.965,-5.9659,-5.9733,-5.9751,-5.971,-5.9839,-5.98,-5.981,-5.9824,-5.9837,-5.9847,-5.9839,-5.9673,0,0,0,0,0,-5.9406,-5.9457,-5.949,-5.9562,-5.958,-5.9598,-5.9626,-5.9627,-5.9662,-5.9676,-5.9698,-5.9732,-5.9779,-5.981,-5.9855,-5.994,-5.9947,-5.9978,-5.9988,-5.9996,-6.0004,-6.0049,-6.0062,-5.9918,-5.9918,-5.9918,0,0,-5.9441,-5.9471,-5.9502,-5.9569,-5.9596,-5.9647,-5.961,-5.9666,-5.9703,-5.9684,-5.9754,-5.9772,-5.981,-5.9889,-5.9925,-5.9906,-6.0046,-6.0005,-6.0011,-6.0014,-6.0057,-6.0071,-6.0083,-5.9922,-5.9921,-5.9921,0,0,-5.9532,-5.956,-5.9622,-5.9651,-5.9693,-5.9705,-5.972,-5.9758,-5.9769,-5.9841,-5.9827,-5.9872,-5.9953,-5.998,-6.0005,-6.0108,-6.0093,-6.0123,-6.0173,-6.0217,-6.0229,-6.0239,-6.0273,-6.0286,-6.0131,-6.0131,-6.0132,0,-5.957,-5.9648,-5.9655,-5.9712,-5.9741,-5.9729,-5.9791,-5.9818,-5.9872,-5.9892,-5.987,-5.9973,-5.9997,-6.0082,-6.0108,-6.0129,-6.0145,-6.0117,-6.0227,-6.0237,-6.0246,-6.0279,-6.0292,-6.0135,-6.0134,-6.0134,-6.0134,0,-5.9692,-5.9746,-5.9791,-5.9845,-5.988,-5.9939,-5.9954,-5.9988,-5.9987,-6.0001,-6.0073,-6.0103,-6.0153,-6.0174,-6.0173,-6.0259,-6.0246,-6.0226,-6.0185,-6.0263,-6.0294,-6.0307,-6.0139,-6.0138,-6.0137,-6.0136,0,0,-5.9801,-5.986,-5.9876,-5.99,-5.9947,-5.9989,-6.0048,-6.0099,-6.0127,-6.0166,-6.0213,-6.0284,-6.0267,-6.0295,-6.0297,-6.0336,-6.0413,-6.0311,-6.0312,-6.0326,-6.0508,-6.052,-6.0534,-6.0406,-6.0408,-6.041,-6.0504,0,-5.9893,-5.9997,-6.0006,-6.01,-6.0149,-6.014,-6.0191,-6.0224,-6.024,-6.0283,-6.0299,-6.0348,-6.0323,-6.0339,-6.0378,-6.0396,-6.0449,-6.039,-6.0448,-6.045,-6.0435,-6.0551,-6.0564,-6.065,-6.0516,-6.0518,-6.052,0,-6.0013,-6.0057,-6.0155,-6.0195,-6.0216,-6.0262,-6.031,-6.0352,-6.039,-6.0398,-6.0431,-6.0428,-6.0487,-6.0449,-6.0529,-6.0488,-6.0514,-6.0526,-6.053,-6.0532,-6.0486,-6.0553,-6.0678,-6.069,-6.0539,-6.0538,-6.0536,0,-6.0079,-6.0163,-6.0233,-6.0254,-6.0303,-6.0336,-6.0357,-6.0393,-6.0423,-6.0465,-6.0484,-6.0532,-6.0557,-6.0594,-6.0604,-6.0575,-6.0684,-6.0646,-6.069,-6.0689,-6.0709,-6.0707,-6.0837,-6.0732,-6.0732,-6.0732,-6.0731,0,-6.0179,-6.0239,-6.0263,-6.0305,-6.0372,-6.0383,-6.0448,-6.0468,-6.05,-6.0545,-6.0541,-6.0582,-6.0595,-6.0639,-6.0647,-6.0711,-6.0724,-6.073,-6.0731,-6.0729,-6.0727,-6.0742,-6.0735,-6.0735,-6.0734,-6.0734,-6.0733,0,-6.0262,-6.0282,-6.0356,-6.0398,-6.041,-6.0457,-6.0491,-6.0531,-6.0548,-6.0604,-6.0618,-6.0643,-6.0694,-6.0709,-6.0771,-6.0776,-6.0851,-6.0848,-6.0838,-6.0837,-6.0879,-6.0874,-6.102,-6.1038,-6.0925,-6.0926,-6.0927,0,-6.0323,-6.0369,-6.0416,-6.0447,-6.047,-6.052,-6.0551,-6.0564,-6.0596,-6.0644,-6.0678,-6.073,-6.0771,-6.0854,-6.0876,-6.0923,-6.0919,-6.0967,-6.0926,-6.0922,-6.0916,-6.0912,-6.0915,-6.0973,-6.0975,-6.0976,-6.0976,0,-6.0427,-6.0435,-6.0481,-6.0531,-6.0569,-6.0608,-6.0646,-6.0671,-6.0689,-6.0726,-6.0779,-6.0812,-6.0876,-6.0927,-6.0975,-6.0996,-6.0988,-6.099,-6.1002,-6.0998,-6.0989,-6.0992,-6.0856,-6.0986,-6.0985,-6.0984,-6.0983,-6.0983,-6.0499,-6.0539,-6.0578,-6.063,-6.066,-6.0696,-6.0736,-6.0758,-6.0803,-6.0857,-6.0862,-6.0919,-6.0957,-6.1021,-6.1045,-6.1089,-6.1075,-6.1093,-6.1097,-6.1101,-6.1103,-6.0986,-6.1099,-6.1098,-6.1098,-6.1098,-6.1098,0,-6.06,-6.0626,-6.0673,-6.0727,-6.0767,-6.0761,-6.0802,-6.0836,-6.0887,-6.0923,-6.0965,-6.1027,-6.1076,-6.1104,-6.1153,-6.1183,-6.1181,-6.1195,-6.1191,-6.1195,-6.1114,-6.1097,-6.1196,-6.1196,-6.1196,-6.1196,-6.1196,-6.1196,-6.0657,-6.0724,-6.0737,-6.0819,-6.0844,-6.0901,-6.0925,-6.0958,-6.0987,-6.1056,-6.1098,-6.1116,-6.1149,-6.1201,-6.1245,-6.1252,-6.1269,-6.1284,-6.1289,-6.1211,-6.1201,-6.1191,-6.1175,-6.1289,-6.1289,-6.1366,-6.1367,-6.1367]},{"header":{"parameterUnit":"m.s-1","parameterCategory":1,"la1":30.2991,"la2":30.254,"lo1":-89.0895,"lo2":-89.0444,"dy":0.0017,"dx":0.0017,"nx":28,"ny":28,"refTime":"2024-05-31T03:00:00:Z","depth":0,"parameterNumber":3,"parameterNumberName":"V-component_of_WINDS"},"data":[0,0,0,0,0,0,0,0,0,0,0,0,0,0,0,0,0,0,0,0,0,0,0,0,0,0,0,0,0,0,0,0,0,0,0,0,0,0,0,0,0,0,0,0,0,0,0,0,0,0,0,0,0,0,0,0,0,0,3.5747,3.5748,0,3.5759,3.576,3.576,3.5751,3.575,3.575,3.575,3.576,3.5761,3.5762,0,0,0,0,0,0,0,0,0,0,0,0,0,3.5717,3.5717,3.5747,3.5748,3.5748,3.5759,3.576,3.576,3.5751,3.575,3.575,3.575,3.576,3.5761,3.5762,0,0,0,0,0,0,0,0,0,0,0,0,0,3.5729,3.5717,3.5747,3.5745,3.5745,3.5759,3.576,3.576,3.5751,3.575,3.575,3.5749,3.576,3.5761,3.5762,3.5779,0,0,3.5765,3.5765,0,0,0,0,0,0,0,0,3.5729,3.5731,3.5745,3.5745,3.5745,3.5753,3.5753,3.5766,3.5751,3.5749,3.575,3.5749,3.5758,3.5759,3.5763,3.578,3.578,3.5765,3.5765,3.5766,3.5766,0,0,0,0,0,0,0,3.5728,3.573,3.5752,3.5745,3.5745,3.5743,3.5744,3.5755,3.5756,3.5749,3.5748,3.575,3.5758,3.5762,3.5763,3.578,3.5765,3.5766,3.5766,3.5767,3.5813,3.5814,0,0,0,0,0,0,3.5727,3.5729,3.5752,3.5752,3.5735,3.5744,3.5745,3.5751,3.5756,3.5757,3.575,3.5749,3.5761,3.5762,3.5763,3.5784,3.5766,3.5767,3.5767,3.5812,3.5813,3.5814,0,0,0,0,0,0,3.5727,3.5729,3.5751,3.5741,3.5743,3.5745,3.5752,3.5752,3.5755,3.5757,3.5758,3.5754,3.576,3.5762,3.5776,3.5785,3.5767,3.5768,3.5812,3.5813,3.5813,3.5826,0,0,0,0,0,0,3.5726,3.5729,3.5736,3.5741,3.5744,3.5763,3.5752,3.5752,3.5757,3.5756,3.5761,3.5761,3.576,3.5774,3.5777,3.5786,3.5769,3.5811,3.5812,3.5813,3.5825,3.5828,3.583,0,0,0,0,0,3.5725,3.5738,3.5736,3.5739,3.5752,3.5764,3.5766,3.5764,3.5758,3.5764,3.5766,3.5761,3.5784,3.5776,3.5778,3.5788,3.581,3.5812,3.5813,3.5824,3.5827,3.583,0,0,0,0,0,0,3.5733,3.5739,3.5736,3.5752,3.5758,3.5762,3.577,3.5768,3.5774,3.5773,3.5771,3.5772,3.5786,3.5789,3.578,3.5805,3.5796,3.5798,3.5803,3.5806,3.5808,3.5807,3.577,0,0,0,0,0,3.5737,3.5746,3.5751,3.5764,3.5767,3.5769,3.5774,3.5772,3.5778,3.578,3.5782,3.5788,3.5796,3.5801,3.5809,3.5826,3.5827,3.5834,3.5836,3.5838,3.5839,3.5849,3.5852,3.5819,3.5819,3.5819,0,0,3.5744,3.5749,3.5754,3.5766,3.577,3.578,3.577,3.5781,3.5788,3.5781,3.5794,3.5797,3.5802,3.5818,3.5825,3.582,3.5849,3.584,3.5841,3.5842,3.5851,3.5854,3.5857,3.582,3.5819,3.5819,0,0,3.5763,3.5767,3.5779,3.5784,3.5791,3.5792,3.5795,3.5801,3.5802,3.5816,3.5811,3.582,3.5834,3.5839,3.5843,3.5865,3.5861,3.5868,3.588,3.5889,3.5892,3.5894,3.5902,3.5905,3.587,3.587,3.587,0,3.5771,3.5786,3.5785,3.5797,3.5802,3.5798,3.581,3.5815,3.5823,3.5827,3.5822,3.5841,3.5844,3.5861,3.5867,3.587,3.5874,3.5867,3.5891,3.5894,3.5896,3.5903,3.5906,3.587,3.587,3.587,3.587,0,3.5795,3.5806,3.5815,3.5825,3.5831,3.5843,3.5844,3.5851,3.585,3.5852,3.5866,3.587,3.5879,3.5883,3.5882,3.59,3.5897,3.5892,3.5882,3.59,3.5907,3.591,3.5872,3.5871,3.5871,3.5871,0,0,3.5817,3.5829,3.5832,3.5837,3.5845,3.5853,3.5865,3.5875,3.588,3.5887,3.5897,3.591,3.5906,3.5911,3.591,3.5918,3.5936,3.5912,3.5912,3.5916,3.5957,3.596,3.5963,3.5934,3.5934,3.5935,3.5956,0,3.5836,3.5858,3.5859,3.5878,3.5888,3.5885,3.5895,3.5902,3.5904,3.5913,3.5915,3.5925,3.5918,3.5921,3.5929,3.5932,3.5944,3.5931,3.5942,3.5943,3.594,3.5967,3.597,3.599,3.5959,3.5959,3.596,0,3.5861,3.587,3.589,3.5898,3.5902,3.5912,3.5921,3.593,3.5937,3.5938,3.5945,3.5943,3.5955,3.5946,3.5963,3.5954,3.5959,3.5961,3.5962,3.5962,3.5951,3.5968,3.5997,3.5999,3.5964,3.5964,3.5963,0,3.5875,3.5892,3.5906,3.5911,3.5921,3.5927,3.5932,3.5939,3.5945,3.5953,3.5957,3.5967,3.5972,3.5979,3.598,3.5973,3.5997,3.5988,3.5998,3.5998,3.6002,3.6002,3.6032,3.6007,3.6007,3.6006,3.6006,0,3.5895,3.5908,3.5913,3.5922,3.5936,3.5938,3.5952,3.5956,3.5962,3.5972,3.597,3.5979,3.598,3.5989,3.599,3.6004,3.6006,3.6007,3.6007,3.6007,3.6007,3.601,3.6008,3.6007,3.6007,3.6007,3.6007,0,3.5913,3.5917,3.5933,3.5942,3.5944,3.5954,3.5961,3.597,3.5973,3.5985,3.5988,3.5993,3.6004,3.6006,3.6018,3.6019,3.6036,3.6034,3.6033,3.6033,3.6043,3.6042,3.6075,3.608,3.6052,3.6052,3.6053,0,3.5925,3.5935,3.5946,3.5952,3.5957,3.5968,3.5975,3.5977,3.5984,3.5994,3.6002,3.6013,3.6022,3.6039,3.6043,3.6053,3.6052,3.6063,3.6053,3.6053,3.6052,3.6051,3.6052,3.6065,3.6065,3.6065,3.6065,0,3.5947,3.5949,3.5959,3.5971,3.5979,3.5988,3.5996,3.6001,3.6005,3.6013,3.6025,3.6032,3.6046,3.6056,3.6067,3.6071,3.6069,3.6069,3.6071,3.6071,3.607,3.607,3.6038,3.6068,3.6067,3.6067,3.6067,3.6067,3.5962,3.5971,3.598,3.5992,3.5999,3.6007,3.6016,3.6021,3.6031,3.6043,3.6044,3.6057,3.6065,3.6078,3.6083,3.6093,3.6089,3.6094,3.6095,3.6095,3.6096,3.6069,3.6095,3.6095,3.6095,3.6095,3.6095,0,3.5984,3.599,3.6001,3.6013,3.6023,3.6021,3.6031,3.6038,3.605,3.6058,3.6068,3.6081,3.6092,3.6098,3.6109,3.6116,3.6115,3.6118,3.6117,3.6119,3.6099,3.6095,3.6119,3.6119,3.6119,3.6119,3.6119,3.6119,3.5996,3.6011,3.6015,3.6034,3.604,3.6053,3.6059,3.6066,3.6073,3.6089,3.6098,3.6102,3.611,3.6121,3.6131,3.6133,3.6136,3.614,3.6141,3.6122,3.612,3.6117,3.6114,3.6141,3.6141,3.616,3.616,3.616]}]]